#timestamp,LO_Frequency,Hit,StdDev 
1716490815.5,286047002.0,N
1716490835.4,286047001.5,N
1716490855.2,286047003.8,N
1716490875.0,286047003.2,N
1716490875.9,286047003.2,N
1716490895.8,286047007.2,Y
1716490915.6,286047008.9,P
1716490935.5,286047008.4,N
1716490955.3,286047006.8,N
1716490975.1,286047005.9,N
1716490995.9,286047005.5,N
1716491015.7,286047003.9,N
1716491035.5,286047004.3,N
1716491055.4,286047004.2,N
1716491075.2,286047001.3,N
1716491095.1,286047002.1,N
1716491096.0,286047002.1,N
1716491115.8,286047000.1,N
1716491135.6,286047000.9,N
1716491155.5,286046999.8,N
1716491175.3,286047002.3,N
1716491195.1,286047002.7,N
1716491215.9,286047001.7,N
1716491235.7,286047001.9,N
1716491255.6,286047001.5,N
1716491275.4,286047004.0,N
1716491295.2,286047001.4,N
1716491315.1,286047001.3,N
1716491316.0,286047001.3,N
1716491335.8,286047003.9,N
1716491355.6,286047005.7,N
1716491375.5,286047005.6,N
1716491395.3,286047003.0,N
1716491415.2,286047005.6,N
1716491435.9,286047005.7,N
1716491455.7,286047005.8,N
1716491475.6,286047005.2,N
1716491495.4,286047005.4,N
1716491515.2,286047005.5,N
1716491535.1,286047005.1,N
1716491536.0,286047005.1,N
1716491555.8,286047003.0,N
1716491575.7,286047005.1,N
1716491595.5,286047004.7,N
1716491615.3,286047004.9,N
1716491635.2,286047004.7,N
1716491655.0,286047007.1,Y
1716491655.9,286047007.1,P
1716491675.8,286047004.2,N
1716491695.6,286047001.8,N
1716491715.4,286047001.6,N
1716491735.3,286046999.7,N
1716491755.1,286046999.8,N
1716491775.8,286047000.1,N
1716491795.7,286046999.8,N
1716491815.5,286046999.7,N
1716491835.4,286047000.2,N
1716491855.2,286046999.7,N
1716491875.0,286047002.3,N
1716491875.9,286047002.3,N
1716491895.8,286047001.7,N
1716491915.6,286047001.8,N
1716491935.4,286047001.8,N
1716491955.3,286047001.8,N
1716491975.1,286047004.4,N
1716491995.9,286047003.6,N
1716492015.7,286047003.1,N
1716492035.5,286047003.6,N
1716492055.4,286047003.6,N
1716492075.2,286047003.5,N
1716492095.0,286047004.4,N
1716492095.9,286047004.4,N
1716492115.8,286047004.4,N
1716492135.6,286047003.9,N
1716492155.5,286047004.2,N
1716492175.3,286047005.8,Y
1716492195.1,286047001.8,P
1716492215.9,286047002.0,P
1716492235.7,286047001.7,P
1716492255.6,286047001.3,Y
1716492275.4,286047000.0,P
1716492295.2,286047002.8,N
1716492315.1,286047002.8,N
1716492316.0,286047002.8,N
1716492335.8,286047002.3,N
1716492355.7,286047000.5,N
1716492375.5,286046998.1,N
1716492395.3,286047001.0,N
1716492415.2,286047000.2,N
1716492435.9,286047002.7,N
1716492455.7,286046999.8,N
1716492475.6,286047000.5,N
1716492495.4,286046999.8,N
1716492515.2,286047002.6,N
1716492535.1,286047001.6,N
1716492536.0,286047001.6,N
1716492555.8,286047002.5,N
1716492575.7,286047002.0,N
1716492595.5,286047000.2,N
1716492615.4,286047000.6,N
1716492635.2,286047000.4,N
1716492655.0,286047001.0,N
1716492655.9,286047001.0,N
1716492675.8,286047000.0,N
1716492695.6,286047002.7,N
1716492715.4,286047002.7,N
1716492735.3,286047000.1,N
1716492755.1,286047002.6,N
1716492775.9,286047002.6,N
1716492795.7,286047002.7,N
1716492815.5,286046999.7,N
1716492835.4,286047001.7,N
1716492855.2,286047001.7,N
1716492875.0,286047002.2,N
1716492875.9,286047002.2,N
1716492895.8,286047002.0,N
1716492915.6,286047002.5,N
1716492935.5,286047002.5,N
1716492955.3,286047000.1,N
1716492975.1,286047000.4,N
1716492995.9,286047000.0,N
1716493015.7,286047002.7,N
1716493035.5,286047002.6,N
1716493055.4,286047002.5,N
1716493075.2,286047002.5,N
1716493095.1,286047002.4,N
1716493096.0,286047002.4,N
1716493115.8,286047001.6,N
1716493135.6,286047001.7,N
1716493155.5,286047001.5,N
1716493175.3,286047002.4,N
1716493195.1,286047002.1,N
1716493215.9,286047001.6,N
1716493235.7,286047001.9,N
1716493255.6,286047001.9,N
1716493275.4,286047002.4,N
1716493295.2,286047004.2,Y
1716493315.1,286047002.7,P
1716493316.0,286047002.7,P
1716493335.8,286046999.7,N
1716493355.7,286047002.0,N
1716493375.5,286047002.7,N
1716493395.3,286046999.7,N
1716493415.2,286047002.8,N
1716493435.0,286047002.1,N
1716493435.9,286047002.1,N
1716493455.8,286047001.8,N
1716493475.6,286047001.4,N
1716493495.4,286047002.1,N
1716493515.3,286047001.9,N
1716493535.1,286047002.4,N
1716493555.9,286047000.1,N
1716493575.7,286047002.3,N
1716493595.5,286047000.0,N
1716493615.4,286047000.7,N
1716493635.2,286047001.2,N
1716493655.0,286047001.2,N
1716493655.9,286047001.2,N
1716493675.8,286047000.8,N
1716493695.6,286047000.4,N
1716493715.5,286047002.8,N
1716493735.3,286047000.3,N
1716493755.1,286047002.7,N
1716493775.9,286047002.0,N
1716493795.7,286047002.0,N
1716493815.5,286047002.3,N
1716493835.4,286047002.4,N
1716493855.2,286046999.8,N
1716493875.1,286046999.9,N
1716493876.0,286046999.9,N
1716493895.8,286047000.5,N
1716493915.6,286046999.9,N
1716493935.5,286046999.7,N
1716493955.3,286047001.2,N
1716493975.1,286046998.1,N
1716493995.9,286046998.5,N
1716494015.7,286047000.8,N
1716494035.6,286047000.6,N
1716494055.4,286047000.9,N
1716494075.2,286047000.6,N
1716494095.1,286047002.3,N
1716494096.0,286047002.3,N
1716494115.8,286047002.2,N
1716494135.6,286047002.4,N
1716494155.5,286047002.3,N
1716494175.3,286047001.9,N
1716494195.2,286047001.9,N
1716494215.9,286047002.1,N
1716494235.7,286047002.0,N
1716494255.6,286047002.1,N
1716494275.4,286047001.9,N
1716494295.2,286047001.7,N
1716494315.1,286047001.9,N
1716494316.0,286047001.9,N
1716494335.8,286047002.1,N
1716494355.7,286047002.0,N
1716494375.5,286047001.6,N
1716494395.3,286047001.3,N
